Location: Miss�
(46.9484°N, 0.1922°W)
Time: 08:45:21
(UTC+00:00)

Cosmos 962 Rocket - Pass Details

Date: 02 March 2021
Orbit: 951 x 999 km, 82.9° (Epoch: 12 April)

Event Time Altitude Azimuth Distance (km) Brightness Sun altitude
Rises 19:27:27 0° 185° (S) 3,636 7.5 -17.7°
Reaches altitude 10° 19:29:56 10° 185° (S) 2,700 6.8 -18.1°
Maximum altitude 19:36:08 87° 98° (E) 984 4.4 -19.2°
Drops below altitude 10° 19:42:27 10° 9° (N) 2,753 6.9 -20.2°
Sets 19:45:00 0° 10° (N) 3,712 7.6 -20.7°
